• In Czech Republic
  • List of Countries
  • For 7 days
  • Water Temperature
  • Satellite Maps
  • Weather Map
  • Weather Widgets
  • user-avatar
    Login

    Hourly Weather Zaranj

    Today, 19 November, Sunday

    Time Temperature Precipitation Wind Pressure Humidity
    00:00 +14°C° 0 mm 6 mps 724 mmHg 18%
    01:00 +13°C° 0 mm 6 mps 724 mmHg 19%
    02:00 +13°C° 0 mm 6 mps 724 mmHg 20%
    03:00 +12°C° 0 mm 5 mps 724 mmHg 21%
    04:00 +12°C° 0 mm 5 mps 724 mmHg 22%
    05:00 +10°C° 0 mm 5 mps 724 mmHg 23%
    06:00 +11°C° 0 mm 4 mps 724 mmHg 24%
    07:00 +11°C° 0 mm 4 mps 725 mmHg 24%
    08:00 +13°C° 0 mm 4 mps 725 mmHg 22%
    09:00 +14°C° 0 mm 5 mps 725 mmHg 20%
    10:00 +16°C° 0 mm 5 mps 726 mmHg 18%
    11:00 +17°C° 0 mm 5 mps 725 mmHg 16%
    12:00 +19°C° 0 mm 5 mps 725 mmHg 15%
    13:00 +20°C° 0 mm 4 mps 724 mmHg 13%
    14:00 +20°C° 0 mm 4 mps 724 mmHg 13%
    15:00 +20°C° 0 mm 4 mps 724 mmHg 13%
    16:00 +20°C° 0 mm 3 mps 724 mmHg 13%
    17:00 +19°C° 0 mm 3 mps 724 mmHg 15%
    18:00 +18°C° 0 mm 2 mps 724 mmHg 17%
    19:00 +16°C° 0 mm 2 mps 724 mmHg 19%
    20:00 +16°C° 0 mm 2 mps 724 mmHg 20%
    21:00 +15°C° 0 mm 2 mps 724 mmHg 21%
    22:00 +15°C° 0 mm 2 mps 724 mmHg 21%
    23:00 +14°C° 0 mm 2 mps 724 mmHg 22%

    Tomorrow, 20 November, Monday

    Time Temperature Precipitation Wind Pressure Humidity
    00:00 +14°C° 0 mm 2 mps 724 mmHg 23%
    01:00 +14°C° 0 mm 2 mps 723 mmHg 24%
    02:00 +13°C° 0 mm 1 mps 723 mmHg 25%
    03:00 +12°C° 0 mm 1 mps 723 mmHg 26%
    04:00 +12°C° 0 mm 1 mps 723 mmHg 27%
    05:00 +12°C° 0 mm 1 mps 723 mmHg 28%
    06:00 +12°C° 0 mm 1 mps 723 mmHg 28%
    07:00 +11°C° 0 mm 0 mps 723 mmHg 28%
    08:00 +13°C° 0 mm 0 mps 724 mmHg 25%
    09:00 +15°C° 0 mm 0 mps 724 mmHg 21%
    10:00 +17°C° 0 mm 0 mps 725 mmHg 18%
    11:00 +18°C° 0 mm 0 mps 724 mmHg 16%
    12:00 +20°C° 0 mm 1 mps 723 mmHg 14%
    13:00 +21°C° 0 mm 1 mps 723 mmHg 13%
    14:00 +21°C° 0 mm 1 mps 723 mmHg 12%
    15:00 +22°C° 0 mm 1 mps 722 mmHg 12%
    16:00 +22°C° 0 mm 1 mps 722 mmHg 12%
    17:00 +20°C° 0 mm 1 mps 722 mmHg 13%
    18:00 +19°C° 0 mm 1 mps 722 mmHg 14%
    19:00 +18°C° 0 mm 1 mps 722 mmHg 16%
    20:00 +16°C° 0 mm 1 mps 722 mmHg 16%
    21:00 +16°C° 0 mm 1 mps 722 mmHg 17%
    22:00 +15°C° 0 mm 1 mps 722 mmHg 18%
    23:00 +14°C° 0 mm 1 mps 722 mmHg 19%

    Day after tomorrow, 21 November, Tuesday

    Time Temperature Precipitation Wind Pressure Humidity
    00:00 +13°C° 0 mm 0 mps 721 mmHg 20%
    01:00 +12°C° 0 mm 0 mps 721 mmHg 21%
    02:00 +12°C° 0 mm 0 mps 721 mmHg 21%
    03:00 +12°C° 0 mm 0 mps 721 mmHg 22%
    04:00 +12°C° 0 mm 1 mps 720 mmHg 23%
    05:00 +12°C° 0 mm 1 mps 721 mmHg 23%
    06:00 +12°C° 0 mm 1 mps 721 mmHg 22%
    07:00 +13°C° 0 mm 1 mps 721 mmHg 22%
    08:00 +15°C° 0 mm 1 mps 722 mmHg 20%
    09:00 +18°C° 0 mm 1 mps 722 mmHg 17%
    10:00 +20°C° 0 mm 1 mps 723 mmHg 14%
    11:00 +21°C° 0 mm 1 mps 722 mmHg 13%
    12:00 +22°C° 0 mm 1 mps 721 mmHg 12%
    13:00 +23°C° 0 mm 1 mps 721 mmHg 11%
    14:00 +23°C° 0 mm 1 mps 720 mmHg 10%
    15:00 +23°C° 0 mm 1 mps 720 mmHg 10%
    16:00 +23°C° 0 mm 1 mps 720 mmHg 10%
    17:00 +22°C° 0 mm 1 mps 720 mmHg 11%
    18:00 +20°C° 0 mm 1 mps 720 mmHg 12%
    19:00 +19°C° 0 mm 1 mps 720 mmHg 13%
    20:00 +18°C° 0 mm 1 mps 720 mmHg 13%
    21:00 +18°C° 0 mm 1 mps 720 mmHg 14%
    22:00 +16°C° 0 mm 1 mps 720 mmHg 14%
    23:00 +16°C° 0 mm 1 mps 720 mmHg 14%

    22 November, Wednesday

    Time Temperature Precipitation Wind Pressure Humidity
    00:00 +16°C° 0 mm 1 mps 719 mmHg 15%
    01:00 +15°C° 0 mm 2 mps 719 mmHg 15%
    02:00 +15°C° 0 mm 2 mps 719 mmHg 16%
    03:00 +15°C° 0 mm 2 mps 719 mmHg 16%
    04:00 +14°C° 0 mm 2 mps 718 mmHg 16%
    05:00 +15°C° 0 mm 2 mps 719 mmHg 16%
    06:00 +15°C° 0 mm 2 mps 719 mmHg 16%
    07:00 +15°C° 0 mm 2 mps 719 mmHg 16%
    08:00 +17°C° 0 mm 2 mps 720 mmHg 14%
    09:00 +18°C° 0 mm 2 mps 720 mmHg 13%
    10:00 +20°C° 0 mm 2 mps 720 mmHg 11%
    11:00 +21°C° 0 mm 2 mps 720 mmHg 10%
    12:00 +23°C° 0 mm 2 mps 719 mmHg 9%
    13:00 +24°C° 0 mm 2 mps 718 mmHg 8%
    14:00 +24°C° 0 mm 2 mps 718 mmHg 8%
    15:00 +24°C° 0 mm 2 mps 718 mmHg 8%
    16:00 +24°C° 0 mm 2 mps 717 mmHg 8%
    17:00 +23°C° 0 mm 2 mps 718 mmHg 9%
    18:00 +20°C° 0 mm 2 mps 718 mmHg 10%
    19:00 +19°C° 0 mm 2 mps 718 mmHg 11%
    20:00 +19°C° 0 mm 2 mps 718 mmHg 11%
    21:00 +18°C° 0 mm 2 mps 718 mmHg 12%
    22:00 +18°C° 0 mm 2 mps 718 mmHg 12%
    23:00 +18°C° 0 mm 2 mps 717 mmHg 13%

    23 November, Thursday

    Time Temperature Precipitation Wind Pressure Humidity
    00:00 +17°C° 0 mm 2 mps 717 mmHg 13%
    01:00 +17°C° 0 mm 2 mps 717 mmHg 13%
    02:00 +17°C° 0 mm 2 mps 717 mmHg 14%
    03:00 +17°C° 0 mm 2 mps 717 mmHg 14%
    04:00 +17°C° 0 mm 2 mps 717 mmHg 14%
    05:00 +17°C° 0 mm 2 mps 717 mmHg 15%
    06:00 +16°C° 0 mm 2 mps 717 mmHg 16%
    07:00 +16°C° 0 mm 2 mps 717 mmHg 16%
    08:00 +18°C° 0 mm 2 mps 718 mmHg 15%
    09:00 +20°C° 0 mm 2 mps 718 mmHg 13%
    10:00 +21°C° 0 mm 2 mps 719 mmHg 11%
    11:00 +23°C° 0 mm 2 mps 718 mmHg 11%
    12:00 +24°C° 0 mm 1 mps 718 mmHg 11%
    13:00 +25°C° 0 mm 1 mps 717 mmHg 10%
    14:00 +25°C° 0 mm 1 mps 717 mmHg 11%
    15:00 +25°C° 0 mm 1 mps 717 mmHg 11%
    16:00 +25°C° 0 mm 1 mps 717 mmHg 12%
    17:00 +24°C° 0 mm 1 mps 717 mmHg 13%
    18:00 +22°C° 0 mm 1 mps 717 mmHg 15%
    19:00 +21°C° 0 mm 1 mps 717 mmHg 16%
    20:00 +19°C° 0 mm 0 mps 718 mmHg 17%
    21:00 +18°C° 0 mm 0 mps 718 mmHg 19%
    22:00 +18°C° 0 mm 0 mps 718 mmHg 20%
    23:00 +17°C° 0 mm 0 mps 718 mmHg 20%

    24 November, Friday

    Time Temperature Precipitation Wind Pressure Humidity
    00:00 +19°C° 0 mm 1 mps 718 mmHg 21%
    01:00 +19°C° 0 mm 1 mps 717 mmHg 22%
    02:00 +19°C° 0 mm 1 mps 718 mmHg 22%
    03:00 +19°C° 0 mm 1 mps 718 mmHg 22%
    04:00 +18°C° 0 mm 2 mps 718 mmHg 22%
    05:00 +17°C° 0 mm 2 mps 718 mmHg 23%
    06:00 +17°C° 0 mm 2 mps 719 mmHg 24%
    07:00 +17°C° 0 mm 2 mps 719 mmHg 25%
    08:00 +20°C° 0 mm 1 mps 720 mmHg 23%
    09:00 +22°C° 0 mm 1 mps 720 mmHg 21%
    10:00 +24°C° 0 mm 1 mps 720 mmHg 18%
    11:00 +25°C° 0 mm 1 mps 720 mmHg 18%
    12:00 +26°C° 0 mm 1 mps 720 mmHg 17%
    13:00 +26°C° 0 mm 1 mps 719 mmHg 17%
    14:00 +27°C° 0 mm 1 mps 719 mmHg 17%
    15:00 +27°C° 0 mm 2 mps 719 mmHg 17%
    16:00 +27°C° 0 mm 2 mps 719 mmHg 18%
    17:00 +25°C° 0 mm 2 mps 719 mmHg 19%
    18:00 +24°C° 0 mm 2 mps 719 mmHg 21%
    19:00 +23°C° 0 mm 2 mps 719 mmHg 23%
    20:00 +21°C° 0 mm 2 mps 720 mmHg 23%
    21:00 +21°C° 0 mm 2 mps 720 mmHg 24%
    22:00 +21°C° 0 mm 2 mps 720 mmHg 24%
    23:00 +20°C° 0 mm 3 mps 720 mmHg 26%
    Show more